Date String (YYYY-MM-DD hh:mm:ss) UTC,Instrument flags,Ambient pressure (hPa),Sample flow (lpm),Bypass flow (lpm),Sample temperature (°C),Ambient temperature (°C),ASC tube jacket temperature (°C),LED temperature (°C),Box temperature (°C),Sample RH (%),Span deviation,Mass concentration (μg/m³),Mass concentration (μg/m³),Mass concentration (μg/m³)
DateTimeUTC,F1_M11,P_M11,Q1_M11,Q2_M11,T1_M11,T2_M11,T3_M11,T4_M11,T5_M11,U1_M11,ZSPAN_M11,X2_M11,X0_M11,X1_M11
2021-09-28 06:00:00,,0823.8,5.00,0.00,29.5,28.1,00.0,38.6,31.3,14.8,0000.0,0003.95,0011.95,0002.85
2021-09-28 06:01:00,,0823.8,5.00,0.00,29.6,28.3,00.0,38.6,31.3,14.7,0000.0,0003.92,0012.24,0002.84
2021-09-28 06:02:00,,0823.8,4.99,0.00,29.6,28.4,00.0,38.6,31.3,14.7,0000.0,0003.90,0012.17,0002.84
2021-09-28 06:03:00,,0823.8,5.00,0.00,29.6,28.5,00.0,38.6,31.4,14.7,0000.0,0003.86,0012.45,0002.80
2021-09-28 06:04:00,,0823.8,5.01,0.00,29.7,28.6,00.0,38.7,31.4,14.7,0000.0,0003.83,0012.04,0002.77
2021-09-28 06:05:00,,0823.8,5.00,0.00,29.7,28.7,00.0,38.7,31.5,14.7,0000.0,0003.83,0012.13,0002.77
2021-09-28 06:06:00,,0823.8,4.99,0.00,29.7,28.7,00.0,38.7,31.5,14.7,0000.0,0003.80,0011.88,0002.76
2021-09-28 06:07:00,,0823.8,5.01,0.00,29.7,28.8,00.0,38.7,31.5,14.7,0000.0,0003.75,0011.48,0002.75
2021-09-28 06:08:00,,0823.7,5.00,0.00,29.8,28.8,00.0,38.7,31.6,14.6,0000.0,0003.70,0011.38,0002.74
2021-09-28 06:09:00,,0823.7,5.00,0.00,29.8,28.9,00.0,38.7,31.6,14.6,0000.0,0003.73,0010.82,0002.74
2021-09-28 06:10:00,,0823.7,5.00,0.00,29.8,28.9,00.0,38.8,31.6,14.6,0000.0,0003.74,0010.40,0002.73
2021-09-28 06:11:00,,0823.7,5.00,0.00,29.9,29.0,00.0,38.8,31.7,14.5,0000.0,0003.73,0009.52,0002.75
2021-09-28 06:12:00,,0823.7,4.99,0.00,29.9,29.0,00.0,38.8,31.7,14.5,0000.0,0003.71,0009.36,0002.75
2021-09-28 06:13:00,,0823.7,5.01,0.00,29.9,28.6,00.0,38.8,31.6,14.5,0000.0,0003.65,0009.04,0002.72
2021-09-28 06:14:00,,0823.7,5.00,0.00,29.8,26.7,00.0,38.8,31.1,14.6,0000.0,0003.58,0008.56,0002.73
2021-09-28 06:15:00,,0823.7,5.00,0.00,29.7,26.2,00.0,38.8,31.0,14.8,0000.0,0003.58,0009.16,0002.73
2021-09-28 06:16:00,,0823.7,5.01,0.00,29.6,26.5,00.0,38.8,31.0,14.9,0000.0,0003.56,0008.94,0002.71
2021-09-28 06:17:00,,0823.7,4.99,0.00,29.5,27.0,00.0,38.7,31.1,15.0,0000.0,0003.61,0009.20,0002.69
2021-09-28 06:18:00,,0823.6,5.00,0.00,29.5,27.3,00.0,38.7,31.1,15.0,0000.0,0003.61,0009.37,0002.67
2021-09-28 06:19:00,,0823.7,4.99,0.00,29.5,27.6,00.0,38.7,31.2,15.0,0000.0,0003.63,0009.56,0002.66
2021-09-28 06:20:00,,0823.7,5.01,0.00,29.5,27.9,00.0,38.7,31.2,15.0,0000.0,0003.61,0009.62,0002.66
2021-09-28 06:21:00,,0823.7,4.99,0.00,29.6,28.1,00.0,38.7,31.3,15.0,0000.0,0003.55,0009.76,0002.65
2021-09-28 06:22:00,,0823.7,5.01,0.00,29.6,28.2,00.0,38.7,31.3,15.0,0000.0,0003.57,0009.92,0002.62
2021-09-28 06:23:00,,0823.7,4.99,0.00,29.6,28.4,00.0,38.7,31.4,15.0,0000.0,0003.60,0009.90,0002.60
2021-09-28 06:24:00,,0823.7,5.00,0.00,29.6,28.5,00.0,38.7,31.4,14.9,0000.0,0003.61,0009.82,0002.59
2021-09-28 06:25:00,,0823.7,5.01,0.00,29.7,28.6,00.0,38.7,31.4,14.9,0000.0,0003.65,0009.92,0002.58
2021-09-28 06:26:00,,0823.7,5.01,0.00,29.7,28.6,00.0,38.7,31.5,14.9,0000.0,0003.68,0009.47,0002.57
2021-09-28 06:27:00,,0823.7,5.00,0.00,29.7,28.7,00.0,38.7,31.5,14.9,0000.0,0003.69,0009.74,0002.57
2021-09-28 06:28:00,,0823.7,4.99,0.00,29.8,28.8,00.0,38.8,31.5,14.9,0000.0,0003.65,0010.11,0002.58
2021-09-28 06:29:00,,0823.7,5.01,0.00,29.8,28.8,00.0,38.8,31.6,14.9,0000.0,0003.64,0009.87,0002.57
2021-09-28 06:30:00,,0823.7,4.99,0.00,29.8,28.9,00.0,38.8,31.6,14.8,0000.0,0003.61,0009.65,0002.57
2021-09-28 06:31:00,,0823.7,5.01,0.00,29.9,28.9,00.0,38.8,31.7,14.8,0000.0,0003.61,0009.70,0002.56
2021-09-28 06:32:00,,0823.6,5.00,0.00,29.9,28.9,00.0,38.8,31.7,14.8,0000.0,0003.63,0009.69,0002.56
2021-09-28 06:33:00,,0823.6,4.99,0.00,29.9,29.0,00.0,38.9,31.7,14.8,0000.0,0003.60,0009.59,0002.57
2021-09-28 06:34:00,,0823.7,5.00,0.00,29.9,28.3,00.0,38.9,31.5,14.8,0000.0,0003.53,0009.41,0002.56
2021-09-28 06:35:00,,0823.6,5.00,0.00,29.8,26.5,00.0,38.8,31.1,14.9,0000.0,0003.53,0009.96,0002.57
2021-09-28 06:36:00,,0823.5,5.00,0.00,29.7,26.3,00.0,38.8,31.0,15.0,0000.0,0003.54,0010.34,0002.58
2021-09-28 06:37:00,,0823.4,4.99,0.00,29.6,26.6,00.0,38.8,31.0,15.1,0000.0,0003.52,0010.36,0002.58
2021-09-28 06:38:00,,0823.4,5.00,0.00,29.5,27.0,00.0,38.8,31.1,15.2,0000.0,0003.50,0009.82,0002.57
2021-09-28 06:39:00,,0823.4,5.00,0.00,29.5,27.4,00.0,38.7,31.1,15.2,0000.0,0003.49,0009.27,0002.57
2021-09-28 06:40:00,,0823.4,5.00,0.00,29.5,27.7,00.0,38.7,31.2,15.2,0000.0,0003.53,0009.89,0002.56
2021-09-28 06:41:00,,0823.4,5.00,0.00,29.5,27.9,00.0,38.7,31.2,15.2,0000.0,0003.60,0010.63,0002.59
2021-09-28 06:42:00,,0823.4,4.99,0.00,29.6,28.1,00.0,38.7,31.3,15.2,0000.0,0003.61,0010.70,0002.60
2021-09-28 06:43:00,,0823.4,5.01,0.00,29.6,28.2,00.0,38.7,31.3,15.2,0000.0,0003.64,0010.47,0002.61
2021-09-28 06:44:00,,0823.4,5.01,0.00,29.6,28.4,00.0,38.7,31.4,15.1,0000.0,0003.66,0010.77,0002.62
2021-09-28 06:45:00,,0823.4,4.99,0.00,29.6,28.5,00.0,38.7,31.4,15.2,0000.0,0003.66,0011.29,0002.62
2021-09-28 06:46:00,,0823.4,5.01,0.00,29.7,28.6,00.0,38.7,31.4,15.2,0000.0,0003.66,0011.25,0002.63
2021-09-28 06:47:00,,0823.4,4.98,0.00,29.7,28.6,00.0,38.7,31.5,15.1,0000.0,0003.66,0010.86,0002.63
2021-09-28 06:48:00,,0823.4,5.02,0.00,29.7,28.7,00.0,38.7,31.5,15.1,0000.0,0003.65,0010.77,0002.64
2021-09-28 06:49:00,,0823.4,4.99,0.00,29.8,28.7,00.0,38.8,31.6,15.1,0000.0,0003.65,0010.88,0002.64
2021-09-28 06:50:00,,0823.4,5.01,0.00,29.8,28.8,00.0,38.8,31.6,15.1,0000.0,0003.65,0010.81,0002.64
2021-09-28 06:51:00,,0823.4,5.00,0.00,29.8,28.8,00.0,38.8,31.6,15.1,0000.0,0003.63,0010.26,0002.66
2021-09-28 06:52:00,,0823.3,4.99,0.00,29.9,28.9,00.0,38.8,31.7,15.1,0000.0,0003.57,0009.58,0002.65
2021-09-28 06:53:00,,0823.3,5.01,0.00,29.9,28.9,00.0,38.8,31.7,15.0,0000.0,0003.55,0009.26,0002.65
2021-09-28 06:54:00,,0823.3,5.01,0.00,29.9,28.9,00.0,38.9,31.7,15.0,0000.0,0003.49,0009.41,0002.64
2021-09-28 06:55:00,,0823.3,4.99,0.00,29.9,29.0,00.0,38.9,31.7,15.0,0000.0,0003.47,0009.58,0002.65
2021-09-28 06:56:00,,0823.3,5.00,0.00,30.0,29.0,00.0,38.9,31.7,15.0,0000.0,0003.50,0008.81,0002.66
2021-09-28 06:57:00,,0823.4,5.00,0.00,30.0,28.2,00.0,38.9,31.6,15.1,0000.0,0003.47,0008.46,0002.65
2021-09-28 06:58:00,,0823.3,5.00,0.00,29.8,26.4,00.0,38.9,31.1,15.2,0000.0,0003.45,0008.54,0002.63
2021-09-28 06:59:00,,0823.3,5.00,0.00,29.7,26.3,00.0,38.9,31.0,15.3,0000.0,0003.48,0008.73,0002.64
